• In Netherlands
  • List of Countries
  • For 7 days
  • Water Temperature
  • Satellite Maps
  • Weather Map
  • Weather Widgets
  • user-avatar
    Login

    Hourly Weather Uida

    Today, 30 April, Sunday

    Time Temperature Precipitation Wind Pressure Humidity
    00:00 +28°C° 0 mm 2 mps 757 mmHg 89%
    01:00 +28°C° 0 mm 2 mps 757 mmHg 89%
    02:00 +28°C° 0 mm 2 mps 757 mmHg 90%
    03:00 +28°C° 0 mm 3 mps 757 mmHg 91%
    04:00 +28°C° 0 mm 3 mps 757 mmHg 91%
    05:00 +28°C° 0 mm 3 mps 757 mmHg 92%
    06:00 +28°C° 0 mm 3 mps 757 mmHg 91%
    07:00 +30°C° 0 mm 3 mps 757 mmHg 79%
    08:00 +33°C° 0 mm 3 mps 758 mmHg 68%
    09:00 +35°C° 0 mm 3 mps 758 mmHg 56%
    10:00 +37°C° 0 mm 3 mps 757 mmHg 51%
    11:00 +38°C° 0 mm 4 mps 757 mmHg 45%
    12:00 +40°C° 0 mm 4 mps 757 mmHg 42%
    13:00 +40°C° 0 mm 4 mps 756 mmHg 43%
    14:00 +38°C° 0 mm 4 mps 756 mmHg 45%
    15:00 +38°C° 0 mm 4 mps 755 mmHg 46%
    16:00 +36°C° 0 mm 4 mps 755 mmHg 54%
    17:00 +34°C° 0 mm 4 mps 755 mmHg 62%
    18:00 +32°C° 0 mm 4 mps 755 mmHg 71%
    19:00 +32°C° 0 mm 4 mps 755 mmHg 74%
    20:00 +30°C° 0 mm 4 mps 756 mmHg 78%
    21:00 +30°C° 0 mm 4 mps 756 mmHg 82%
    22:00 +29°C° 0.1 mm 4 mps 756 mmHg 84%
    23:00 +29°C° 0.1 mm 4 mps 756 mmHg 86%

    Tomorrow, 1 May, Monday

    Time Temperature Precipitation Wind Pressure Humidity
    00:00 +29°C° 0.1 mm 3 mps 756 mmHg 87%
    01:00 +28°C° 0.2 mm 3 mps 756 mmHg 88%
    02:00 +28°C° 0.2 mm 3 mps 756 mmHg 89%
    03:00 +28°C° 0.2 mm 3 mps 755 mmHg 90%
    04:00 +28°C° 0.1 mm 3 mps 755 mmHg 90%
    05:00 +28°C° 0.1 mm 3 mps 756 mmHg 90%
    06:00 +28°C° 0.1 mm 3 mps 756 mmHg 90%
    07:00 +30°C° 0 mm 4 mps 756 mmHg 79%
    08:00 +33°C° 0 mm 4 mps 756 mmHg 69%
    09:00 +35°C° 0 mm 4 mps 757 mmHg 58%
    10:00 +37°C° 0 mm 4 mps 756 mmHg 52%
    11:00 +39°C° 0 mm 5 mps 756 mmHg 47%
    12:00 +40°C° 0 mm 5 mps 756 mmHg 41%
    13:00 +40°C° 0 mm 5 mps 755 mmHg 42%
    14:00 +39°C° 0 mm 5 mps 755 mmHg 44%
    15:00 +39°C° 0 mm 5 mps 754 mmHg 45%
    16:00 +36°C° 0 mm 5 mps 754 mmHg 53%
    17:00 +34°C° 0 mm 5 mps 754 mmHg 60%
    18:00 +32°C° 0 mm 5 mps 754 mmHg 68%
    19:00 +32°C° 0 mm 5 mps 755 mmHg 73%
    20:00 +30°C° 0 mm 4 mps 755 mmHg 77%
    21:00 +30°C° 0 mm 4 mps 756 mmHg 81%
    22:00 +29°C° 0 mm 4 mps 756 mmHg 82%
    23:00 +29°C° 0 mm 4 mps 756 mmHg 83%

    Day after tomorrow, 2 May, Tuesday

    Time Temperature Precipitation Wind Pressure Humidity
    00:00 +29°C° 0 mm 3 mps 756 mmHg 84%
    01:00 +29°C° 0 mm 3 mps 756 mmHg 85%
    02:00 +29°C° 0 mm 3 mps 755 mmHg 86%
    03:00 +28°C° 0 mm 3 mps 755 mmHg 87%
    04:00 +28°C° 0 mm 3 mps 755 mmHg 88%
    05:00 +28°C° 0 mm 3 mps 755 mmHg 88%
    06:00 +28°C° 0 mm 3 mps 755 mmHg 89%
    07:00 +30°C° 0 mm 3 mps 756 mmHg 78%
    08:00 +33°C° 0 mm 4 mps 756 mmHg 68%
    09:00 +35°C° 0 mm 4 mps 756 mmHg 57%
    10:00 +37°C° 0 mm 5 mps 756 mmHg 52%
    11:00 +39°C° 0 mm 5 mps 756 mmHg 48%
    12:00 +40°C° 0 mm 5 mps 755 mmHg 44%
    13:00 +40°C° 0 mm 5 mps 754 mmHg 45%
    14:00 +39°C° 0 mm 5 mps 754 mmHg 47%
    15:00 +39°C° 0 mm 5 mps 753 mmHg 49%
    16:00 +36°C° 0 mm 5 mps 753 mmHg 56%
    17:00 +34°C° 0 mm 5 mps 753 mmHg 64%
    18:00 +32°C° 0 mm 5 mps 754 mmHg 72%
    19:00 +32°C° 0 mm 5 mps 754 mmHg 75%
    20:00 +30°C° 0 mm 5 mps 755 mmHg 79%
    21:00 +30°C° 0 mm 5 mps 756 mmHg 83%
    22:00 +30°C° 0 mm 5 mps 756 mmHg 83%
    23:00 +29°C° 0 mm 4 mps 756 mmHg 84%

    3 May, Wednesday

    Time Temperature Precipitation Wind Pressure Humidity
    00:00 +29°C° 0 mm 4 mps 755 mmHg 85%
    01:00 +29°C° 0 mm 4 mps 755 mmHg 86%
    02:00 +29°C° 0 mm 4 mps 755 mmHg 87%
    03:00 +29°C° 0 mm 4 mps 754 mmHg 87%
    04:00 +29°C° 0 mm 4 mps 755 mmHg 87%
    05:00 +29°C° 0 mm 4 mps 755 mmHg 87%
    06:00 +29°C° 0 mm 4 mps 756 mmHg 87%
    07:00 +30°C° 0.1 mm 4 mps 756 mmHg 78%
    08:00 +33°C° 0.1 mm 4 mps 756 mmHg 68%
    09:00 +35°C° 0.1 mm 4 mps 757 mmHg 58%
    10:00 +36°C° 0 mm 5 mps 756 mmHg 54%
    11:00 +39°C° 0 mm 5 mps 756 mmHg 49%
    12:00 +40°C° 0 mm 5 mps 755 mmHg 45%
    13:00 +39°C° 0.3 mm 5 mps 754 mmHg 48%
    14:00 +37°C° 0.3 mm 5 mps 754 mmHg 51%
    15:00 +37°C° 0.3 mm 5 mps 753 mmHg 54%
    16:00 +35°C° 0.4 mm 5 mps 753 mmHg 60%
    17:00 +34°C° 0.4 mm 5 mps 754 mmHg 65%
    18:00 +33°C° 0.4 mm 5 mps 754 mmHg 70%
    19:00 +32°C° 0 mm 5 mps 755 mmHg 72%
    20:00 +32°C° 0 mm 5 mps 755 mmHg 75%
    21:00 +30°C° 0 mm 5 mps 756 mmHg 77%
    22:00 +30°C° 0 mm 5 mps 756 mmHg 78%
    23:00 +30°C° 0 mm 4 mps 756 mmHg 80%

    4 May, Thursday

    Time Temperature Precipitation Wind Pressure Humidity
    00:00 +30°C° 0 mm 4 mps 755 mmHg 81%
    01:00 +29°C° 0.9 mm 4 mps 755 mmHg 84%
    02:00 +29°C° 0.9 mm 4 mps 755 mmHg 87%
    03:00 +28°C° 0.9 mm 3 mps 754 mmHg 90%
    04:00 +28°C° 0.5 mm 3 mps 755 mmHg 90%
    05:00 +28°C° 0.5 mm 3 mps 755 mmHg 90%
    06:00 +28°C° 0.5 mm 3 mps 755 mmHg 90%
    07:00 +30°C° 0.1 mm 3 mps 756 mmHg 81%
    08:00 +33°C° 0.1 mm 3 mps 756 mmHg 72%
    09:00 +34°C° 0.1 mm 3 mps 757 mmHg 62%
    10:00 +36°C° 0.1 mm 4 mps 756 mmHg 56%
    11:00 +37°C° 0.1 mm 4 mps 755 mmHg 51%
    12:00 +39°C° 0.1 mm 5 mps 755 mmHg 45%
    13:00 +39°C° 0 mm 5 mps 754 mmHg 46%
    14:00 +37°C° 0 mm 5 mps 753 mmHg 47%
    15:00 +37°C° 0 mm 5 mps 751 mmHg 48%
    16:00 +35°C° 0 mm 5 mps 752 mmHg 55%
    17:00 +34°C° 0 mm 5 mps 753 mmHg 62%
    18:00 +32°C° 0 mm 5 mps 753 mmHg 69%
    19:00 +32°C° 0 mm 5 mps 754 mmHg 72%
    20:00 +30°C° 0 mm 5 mps 754 mmHg 75%
    21:00 +30°C° 0 mm 5 mps 755 mmHg 78%
    22:00 +29°C° 0.3 mm 4 mps 755 mmHg 80%
    23:00 +29°C° 0.3 mm 4 mps 755 mmHg 83%

    5 May, Friday

    Time Temperature Precipitation Wind Pressure Humidity
    00:00 +29°C° 0.3 mm 4 mps 755 mmHg 85%
    01:00 +28°C° 0.9 mm 3 mps 755 mmHg 87%
    02:00 +28°C° 0.9 mm 3 mps 755 mmHg 88%
    03:00 +28°C° 0.9 mm 3 mps 755 mmHg 90%
    04:00 +28°C° 0.5 mm 3 mps 755 mmHg 90%
    05:00 +28°C° 0.5 mm 3 mps 756 mmHg 90%
    06:00 +28°C° 0.5 mm 2 mps 756 mmHg 90%
    07:00 +30°C° 0 mm 3 mps 756 mmHg 81%
    08:00 +31°C° 0 mm 3 mps 757 mmHg 73%
    09:00 +34°C° 0 mm 4 mps 757 mmHg 65%
    10:00 +36°C° 0 mm 4 mps 756 mmHg 57%
    11:00 +37°C° 0 mm 4 mps 756 mmHg 50%
    12:00 +40°C° 0 mm 4 mps 755 mmHg 43%
    13:00 +38°C° 0 mm 4 mps 755 mmHg 45%
    14:00 +38°C° 0 mm 4 mps 754 mmHg 46%
    15:00 +37°C° 0 mm 5 mps 753 mmHg 47%
    16:00 +36°C° 0 mm 5 mps 753 mmHg 54%
    17:00 +34°C° 0 mm 4 mps 754 mmHg 60%
    18:00 +32°C° 0 mm 4 mps 754 mmHg 67%
    19:00 +32°C° 0 mm 4 mps 754 mmHg 71%
    20:00 +30°C° 0 mm 4 mps 755 mmHg 75%
    21:00 +30°C° 0 mm 4 mps 755 mmHg 79%
    22:00 +29°C° 0.3 mm 4 mps 755 mmHg 82%
    23:00 +29°C° 0.3 mm 4 mps 755 mmHg 85%
    Show more